Location: Larrial
(48.2758°N, 4.5331°W)
Time: 17:57:26
(UTC+00:00)

CZ-4C R/B - Pass Details

Date: 09 April 2020
Orbit: 637 x 1364 km, 63.4° (Epoch: 25 May)

Event Time Altitude Azimuth Distance (km) Brightness Sun altitude
Rises 22:36:34 0° 318° (NW) 3,802 6.7 -29.3°
Reaches altitude 10° 22:39:02 10° 317° (NW) 2,943 5.9 -29.5°
Maximum altitude 22:46:11 76° 234° (SW) 1,261 2.9 -30.1°
Enters shadow 22:46:58 70° 187° (S) 1,308 2.8 -30.1°
